Terminal Aerodrome Forecast
Issued by NWS

Home | Current Version | Previous Version | Text Only | Print | Product List | Glossary On
Versions: 1 2 3 4 5 6 7 8 9 10 11 12 13 14 15 16 17 18 19 20 21 22 23 24
000
FTUS44 KOUN 101128
TAFPNC
TAF
KPNC 101128Z 1012/1112 05020G30KT 4SM TSRA SCT009 BKN035 OVC050CB
     FM101430 13011G15KT P6SM BKN080
     FM110000 16009KT P6SM SKC=

USA.gov is the U.S. government's official web portal to all federal, state and local government web resources and services.